Location: Unspecified
(44.8237°N, 0.6475°W)
Time: 05:59:16
(UTC+02:00)

ISS - Visible Passes

Search period start: 22 October 2020 00:00
Search period end: 31 October 2020 23:00
Orbit: 417 x 420 km, 51.6° (Epoch: 21 October)

Date Brightness Start Highest point End Pass type
(mag) Time Alt. Az. Time Alt. Az. Time Alt. Az.
22 Oct -1.6 07:37:36 10° SSW 07:40:28 27° SE 07:43:23 10° E visible
23 Oct -1.0 06:50:39 10° S 06:52:54 17° SE 06:55:10 10° E visible
24 Oct -0.6 06:04:52 10° SE 06:05:22 10° SE 06:05:53 10° ESE visible
24 Oct -3.5 07:38:16 10° SW 07:41:36 70° SSE 07:44:57 10° ENE visible
25 Oct -2.8 05:52:30 26° SSW 05:53:54 43° SE 05:57:08 10° ENE visible
26 Oct -1.5 05:07:10 23° ESE 05:07:10 23° ESE 05:09:10 10° E visible
26 Oct -3.5 06:40:08 14° W 06:42:55 52° NNW 06:46:14 10° NE visible
27 Oct -3.9 05:54:41 63° W 05:55:07 77° NNW 05:58:30 10° ENE visible
28 Oct -1.5 05:09:07 26° ENE 05:09:07 26° ENE 05:10:44 10° ENE visible
28 Oct -2.7 06:42:05 15° WNW 06:44:23 31° NNW 06:47:26 10° NE visible
29 Oct -3.1 05:56:26 39° NNW 05:56:30 39° NNW 05:59:42 10° NE visible
30 Oct -1.3 05:10:43 20° NE 05:10:43 20° NE 05:11:59 10° NE visible
30 Oct -2.2 06:43:40 13° NW 06:45:58 25° N 06:48:49 10° NE visible
31 Oct -2.4 05:57:55 27° NNW 05:58:01 27° N 06:00:58 10° NE visible
